Home   Weather   Enugu   Past weeks

Flag for Nigeria Past Weather in Enugu, Nigeria — Yesterday and Last 2 Weeks

Now
81 °F

Broken clouds.


Feels Like: 85 °F
Forecast: 71 / 78 °F
Wind: 14 mph from Southwest

Location: Malabo/Fernando Poo

Current Time: Aug 21, 2017 at 1:24:32 pm

Latest Report: Aug 21, 2017 at 12:00 pm


Visibility: N/A

Pressure: 29.92 "Hg

Humidity: 79%

Dew Point: 73 °F

Location of EnuguLocation

Past Weather in Enugu — Graph

°F

Enugu Temperature Yesterday

Maximum temperature yesterday: 79 °F (at 1:00 pm)
Minimum temperature yesterday: 73 °F (at 8:00 pm)
Average temperature yesterday: 76 °F

High & Low Weather Summary for the Past Weeks

 TemperatureHumidityPressure
High86 °F (Aug 6, 1:00 pm)94% (Aug 7, 2:00 am)30.07 "Hg (Aug 7, 2:00 am)
Low72 °F (Aug 9, 10:00 am)66% (Aug 6, 1:00 pm)29.83 "Hg (Aug 17, 3:00 pm)
Average77 °F87%29.94 "Hg
* Reported Aug 6 11:00 am — Aug 21 11:00 am, Enugu. Weather by CustomWeather, © 2017

Note: Actual official high and low records may vary slightly from our data, if they occured in-between our weather recording intervals... More about our weather records

Advertising

Enugu Weather History for the Previous 24 Hours

Scroll right to see more
 ConditionsComfort  
Time TempWeatherWind HumidityBarometerVisibility
11:00 am
Mon, Aug 21
81 °FBroken clouds.14 mph84%29.95 "HgN/A
10:00 am79 °FBroken clouds.14 mph84%29.98 "HgN/A
9:00 am77 °FBroken clouds.13 mph89%29.98 "HgN/A
8:00 am77 °FBroken clouds.10 mph83%29.95 "HgN/A
7:00 am75 °FBroken clouds.6 mph89%29.95 "HgN/A
6:00 am75 °FPassing clouds.5 mph89%29.92 "HgN/A
5:00 am75 °FPassing clouds.9 mph89%29.92 "HgN/A
4:00 am75 °FPassing clouds.9 mph89%29.92 "HgN/A
3:00 am75 °FPassing clouds.6 mph89%29.92 "Hg4 mi
2:00 am75 °FPartly cloudy.8 mph89%29.95 "Hg4 mi
1:00 am75 °FPartly cloudy.9 mph89%29.95 "Hg4 mi
12:00 am75 °FPassing clouds.7 mph89%29.98 "HgN/A
11:00 pm
Sun, Aug 20
75 °FPassing clouds.10 mph89%29.98 "HgN/A
10:00 pm75 °FPassing clouds.10 mph89%29.98 "HgN/A
9:00 pm75 °FPassing clouds.10 mph89%29.95 "HgN/A
8:00 pm73 °FPassing clouds.8 mph94%29.95 "Hg5 mi
7:00 pm75 °FPassing clouds.7 mph89%29.95 "Hg5 mi
6:00 pm75 °FThunderstorms. Partly sunny.8 mph94%29.92 "Hg2 mi
5:00 pm75 °FThunderstorms. Mostly cloudy.8 mph94%29.92 "Hg4 mi
4:00 pm75 °FThunderstorms. Mostly cloudy.6 mph94%29.92 "Hg2 mi
3:00 pm77 °FLight rain. Mostly cloudy.8 mph89%29.92 "Hg4 mi
2:00 pm77 °FPartly sunny.10 mph89%29.92 "Hg5 mi
1:00 pm79 °FPartly sunny.10 mph89%29.95 "Hg5 mi
Weather by CustomWeather, © 2017

See weather overviewHow to use our weather pages